Weather History for Minot, ND

Change the Weather History Date:

Thursday, May 1, 2014

  Actual Average Record
Temperature  
Mean Temperature 48 °F 50 °F  
Max Temperature 63 °F 62 °F 88 °F (1939)
Min Temperature 32 °F 38 °F 9 °F (1909)
Degree Days  
Heating Degree Days 17 15  
Month to date heating degree days 17 15  
Since 1 July heating degree days 9310 8381  
Cooling Degree Days 0 0  
Month to date cooling degree days 0 0  
Year to date cooling degree days 0 1  
Moisture  
Dew Point 29 °F    
Average Humidity 49    
Maximum Humidity 70    
Minimum Humidity 27    
Precipitation  
Precipitation 0.00 in 0.06 in 0.50 in (1988)
Month to date precipitation 0.00 0.06  
Year to date precipitation 2.21 2.95  
Sea Level Pressure  
Sea Level Pressure 30.02 in    
Wind  
Wind Speed 14 mph (WNW)    
Max Wind Speed 25 mph    
Max Gust Speed 32 mph    
Visibility 10 miles    
Events      
T = Trace of Precipitation, MM = Missing Value Source: NWS Daily Summary

Daily Weather History Graph

Daily Weather History Graph

Search for Another Location

Airport:

Trip Planner

Search our weather history database for the weather conditions in past years. The results will help you decide how hot, cold, wet, or windy it might be!

Date:

Astronomy

May. 01, 2014 Rise Set
Actual Time 6:26 AM CDT 8:59 PM CDT
Civil Twilight 5:51 AM CDT 9:34 PM CDT
Nautical Twilight 5:07 AM CDT 10:18 PM CDT
Astronomical Twilight 4:16 AM CDT 11:10 PM CDT
Moon 8:10 AM CDT (5/1) 11:38 PM CDT (5/1)
Length of Visible Light 15h 43m
Length of Day
14h 32m
Waxing Crescent, 7% of the Moon is Illuminated
May 1
Waxing Crescent
May 6
First Quarter
May 14
Full
May 21
Last Quarter
May 28
New

Hourly Weather History & Observations

Time (CDT) Temp. Windchill Dew Point Humidity Pressure Visibility Wind Dir Wind Speed Gust Speed Precip Events Conditions
12:54 AM 37.0 °F 29.3 °F 24.1 °F 59% 30.17 in 10.0 mi NW 11.5 mph - N/A   Clear
1:54 AM 33.8 °F 26.4 °F 24.8 °F 70% 30.13 in 10.0 mi WNW 9.2 mph - N/A   Clear
2:54 AM 34.0 °F 26.0 °F 21.9 °F 61% 30.16 in 10.0 mi WNW 10.4 mph - N/A   Clear
3:54 AM 35.1 °F 26.9 °F 23.0 °F 61% 30.15 in 10.0 mi WNW 11.5 mph - N/A   Clear
4:54 AM 35.1 °F 25.9 °F 23.0 °F 61% 30.14 in 10.0 mi WNW 13.8 mph - N/A   Clear
5:54 AM 36.0 °F 27.1 °F 24.1 °F 62% 30.13 in 10.0 mi WNW 13.8 mph - N/A   Clear
6:54 AM 35.1 °F 26.4 °F 27.0 °F 72% 30.14 in 10.0 mi WNW 12.7 mph - N/A   Clear
7:54 AM 39.0 °F 31.8 °F 28.9 °F 67% 30.14 in 10.0 mi WNW 11.5 mph - N/A   Clear
8:54 AM 44.1 °F 37.1 °F 28.9 °F 55% 30.14 in 10.0 mi NW 15.0 mph - N/A   Clear
9:54 AM 48.9 °F - 30.0 °F 48% 30.13 in 10.0 mi NW 15.0 mph - N/A   Clear
10:54 AM 51.1 °F - 30.9 °F 46% 30.12 in 10.0 mi NW 20.7 mph 29.9 mph N/A   Clear
11:54 AM 53.1 °F - 32.0 °F 45% 30.11 in 10.0 mi NNW 23.0 mph - N/A   Clear
12:54 PM 55.4 °F - 30.2 °F 38% 30.04 in 10.0 mi NNW 17.3 mph 26.5 mph N/A   Clear
1:54 PM 57.0 °F - 30.0 °F 36% 30.05 in 10.0 mi WNW 20.7 mph 27.6 mph N/A   Clear
2:54 PM 60.1 °F - 27.0 °F 28% 30.03 in 10.0 mi NW 19.6 mph 25.3 mph 0.00 in   Clear
3:54 PM 62.6 °F - 28.4 °F 27% 29.97 in 10.0 mi NW 17.3 mph 26.5 mph N/A   Clear
4:54 PM 62.6 °F - 28.4 °F 27% 29.95 in 10.0 mi WNW 16.1 mph - N/A   Clear
5:54 PM 62.1 °F - 30.9 °F 31% 29.94 in 10.0 mi NW 13.8 mph - N/A   Mostly Cloudy
6:54 PM 61.0 °F - 33.1 °F 35% 29.91 in 10.0 mi WNW 6.9 mph - N/A   Overcast
7:54 PM 59.0 °F - 33.1 °F 38% 29.88 in 10.0 mi Calm Calm - N/A   Mostly Cloudy
8:54 PM 57.0 °F - 35.1 °F 44% 29.82 in 10.0 mi SSE 5.8 mph - N/A   Overcast
9:54 PM 55.9 °F - 35.1 °F 45% 29.78 in 10.0 mi South 4.6 mph - N/A   Overcast
10:54 PM 55.9 °F - 34.0 °F 44% 29.75 in 10.0 mi SSW 11.5 mph - N/A   Overcast
11:54 PM 55.9 °F - 34.0 °F 44% 29.73 in 10.0 mi WSW 15.0 mph - N/A   Mostly Cloudy